Weather History for KPMD - April, 2013

Change the Weather History Date:

Sunday, April 14, 2013

  Actual Average Record
Temperature  
Mean Temperature 64 °F 57 °F  
Max Temperature 76 °F 72 °F 93 °F (1985)
Min Temperature 51 °F 43 °F 28 °F (1972)
Degree Days  
Heating Degree Days 1 8  
Month to date heating degree days 48 132  
Since 1 July heating degree days 2458 2753  
Cooling Degree Days 0 0  
Month to date cooling degree days 9 0  
Year to date cooling degree days 16 2  
Growing Degree Days 14 (Base 50)    
Moisture  
Dew Point 41 °F    
Average Humidity 49    
Maximum Humidity 77    
Minimum Humidity 21    
Precipitation  
Precipitation 0.00 in 0.02 in 0.54 in (2003)
Month to date precipitation 0.00 0.23  
Year to date precipitation 0.71 4.74  
Since 1 July precipitation 1.00  
Snow  
Snow 0.00 in - 0.00 in (1973)
Month to date snowfall 0.0  
Since 1 July snowfall 0.0  
Snow Depth 0.00 in    
Sea Level Pressure  
Sea Level Pressure 29.72 in    
Wind  
Wind Speed 19 mph (WSW)    
Max Wind Speed 39 mph    
Max Gust Speed 44 mph    
Visibility 10 miles    
Events      
T = Trace of Precipitation, MM = Missing Value Source: NWS Daily Summary

Daily Weather History Graph

Daily Weather History Graph

Search for Another Location

Airport or City:

Trip Planner

Search our weather history database for the weather conditions in past years. The results will help you decide how hot, cold, wet, or windy it might be!

Date:

Astronomy

Apr. 14, 2013 Rise Set
Actual Time 6:21 AM PDT 7:23 PM PDT
Civil Twilight 5:55 AM PDT 7:49 PM PDT
Nautical Twilight 5:25 AM PDT 8:20 PM PDT
Astronomical Twilight 4:53 AM PDT 8:52 PM PDT
Moon 9:09 AM PDT (4/14) 11:33 PM PDT (4/14)
Length of Visible Light 13h 54m
Length of Day
13h 02m
Waxing Crescent, 18% of the Moon is Illuminated
Apr 14
Waxing Crescent
Apr 18
First Quarter
Apr 25
Full
May 2
Last Quarter
May 9
New

Hourly Weather History & Observations

Time (PDT) Temp. Dew Point Humidity Pressure Visibility Wind Dir Wind Speed Gust Speed Precip Events Conditions
12:53 AM 57.9 °F 41.0 °F 53% 29.73 in 10.0 mi WSW 13.8 mph - N/A   Clear
1:53 AM 59.0 °F 41.0 °F 51% 29.72 in 10.0 mi SW 17.3 mph 26.5 mph N/A   Clear
2:53 AM 55.9 °F 42.1 °F 60% 29.71 in 10.0 mi SW 13.8 mph - N/A   Clear
3:53 AM 54.0 °F 43.0 °F 66% 29.72 in 10.0 mi SSW 15.0 mph - N/A   Clear
4:53 AM 55.0 °F 43.0 °F 64% 29.72 in 10.0 mi WSW 15.0 mph - N/A   Clear
5:53 AM 54.0 °F 43.0 °F 66% 29.72 in 10.0 mi WSW 15.0 mph - N/A   Clear
6:53 AM 54.0 °F 43.0 °F 66% 29.74 in 10.0 mi South 9.2 mph - N/A   Clear
7:53 AM 57.9 °F 43.0 °F 58% 29.73 in 10.0 mi SW 13.8 mph - N/A   Clear
8:53 AM 62.1 °F 42.1 °F 48% 29.75 in 10.0 mi WSW 11.5 mph - N/A   Clear
9:53 AM 64.9 °F 42.1 °F 43% 29.75 in 10.0 mi WSW 15.0 mph - N/A   Clear
10:53 AM 69.1 °F 42.1 °F 38% 29.75 in 10.0 mi West 15.0 mph 24.2 mph N/A   Clear
11:53 AM 72.0 °F 39.0 °F 30% 29.72 in 10.0 mi WSW 17.3 mph 25.3 mph N/A   Clear
12:53 PM 73.0 °F 37.0 °F 27% 29.71 in 10.0 mi West 19.6 mph 25.3 mph N/A   Clear
1:53 PM 75.0 °F 32.0 °F 21% 29.71 in 10.0 mi WNW 28.8 mph 36.8 mph N/A   Clear
2:53 PM 75.0 °F 34.0 °F 22% 29.69 in 10.0 mi West 19.6 mph 32.2 mph N/A   Clear
3:53 PM 75.0 °F 35.1 °F 23% 29.68 in 6.0 mi WNW 35.7 mph 43.7 mph N/A   Haze
4:53 PM 71.1 °F 42.1 °F 35% 29.69 in 10.0 mi WSW 16.1 mph 25.3 mph N/A   Clear
5:53 PM 71.1 °F 36.0 °F 28% 29.69 in 10.0 mi West 25.3 mph 33.4 mph N/A   Clear
6:53 PM 63.0 °F 42.1 °F 46% 29.72 in 10.0 mi WSW 20.7 mph 29.9 mph N/A   Clear
7:53 PM 57.0 °F 44.1 °F 62% 29.73 in 10.0 mi SW 21.9 mph - N/A   Clear
8:53 PM 54.0 °F 45.0 °F 72% 29.75 in 10.0 mi SW 24.2 mph - N/A   Clear
9:53 PM 55.0 °F 43.0 °F 64% 29.76 in 10.0 mi SW 20.7 mph - N/A   Clear
10:53 PM 53.1 °F 43.0 °F 69% 29.75 in 10.0 mi SW 20.7 mph - N/A   Clear
11:53 PM 51.1 °F 44.1 °F 77% 29.74 in 10.0 mi SW 24.2 mph - N/A   Clear